Location: Morlupo
(42.1333°N, 12.5000°E)
Time: 16:09:39
(UTC+00:00)

Cosmos 2082 Rocket - Pass Details

Date: 18 September 2020
Orbit: 834 x 853 km, 71.0° (Epoch: 25 October)

Event Time Altitude Azimuth Distance (km) Brightness Sun altitude
Rises 20:41:22 0° 341° (NNW) 3,390 6.1 -35.9°
Reaches altitude 10° 20:43:57 10° 348° (NNW) 2,453 5.2 -36.2°
Enters shadow 20:46:17 23° 3° (N) 1,694 4.0 -36.5°
